07.05.2024;19:00;14
07.05.2024;18:00;19
07.05.2024;17:00;19
07.05.2024;16:00;13
07.05.2024;15:00;16
07.05.2024;14:00;14
07.05.2024;13:00;13
07.05.2024;12:00;10
07.05.2024;11:00;10
07.05.2024;10:00;14
07.05.2024;09:00;17
07.05.2024;08:00;25
07.05.2024;07:00;21
07.05.2024;06:00;15
07.05.2024;05:00;5
07.05.2024;04:00;10
07.05.2024;03:00;6
07.05.2024;02:00;6
07.05.2024;01:00;6
07.05.2024;00:00;6
06.05.2024;23:00;12
06.05.2024;22:00;14
06.05.2024;21:00;11
06.05.2024;20:00;22
06.05.2024;19:00;22
06.05.2024;18:00;20
06.05.2024;17:00;19
06.05.2024;16:00;13
06.05.2024;15:00;12
06.05.2024;14:00;13
06.05.2024;13:00;13
06.05.2024;12:00;9
06.05.2024;11:00;13
06.05.2024;10:00;24
06.05.2024;09:00;28
06.05.2024;08:00;41
06.05.2024;07:00;44
06.05.2024;06:00;38
06.05.2024;05:00;31
06.05.2024;04:00;23
06.05.2024;03:00;15
06.05.2024;02:00;14
06.05.2024;01:00;17
06.05.2024;00:00;24
05.05.2024;23:00;24
05.05.2024;22:00;26
05.05.2024;21:00;14
05.05.2024;20:00;15
